User: anonymous   Login
Location: Cactus School
(34.5700°N, 118.0931°W)
Time: 02:57:02
(UTC-07:00)
Language:

CAS-6 - Orbit

View from above orbital plane
View from above orbital plane
View from above satellite
View from above satellite

Ground track
Ground track

The orbit data is extracted from the following two-line orbital elements,

1 44881U 19093C   24146.85336176  .00001788  00000-0  22242-3 0  9992
2 44881  97.8281 224.0663 0015211  40.7300 319.5049 14.83690466239731
Epoch (UTC): 25 May 2024 20:28:50
Eccentricity: 0.0015211
inclination: 97.8281°
perigee height: 607 km
apogee height: 628 km
right ascension of ascending node: 224.0663°
argument of perigee: 40.7300°
revolutions per day: 14.83690466
mean anomaly at epoch: 319.5049°
orbit number at epoch: 23973

The dashed part of the orbit path shows where the satellite is in the earth's shadow,  

DLR